Regional Weather Roundup
Issued by NWS

Home | Current Version | Previous Version | Graphics & Text | Print | Product List | Glossary On
Versions: 1 2 3 4 5 6 7 8 9 10 11 12 13 14 15 16 17 18 19 20 21 22 23 24 25 26 27 28 29 30 31 32 33 34 35 36 37 38 39 40 41 42 43 44 45 46 47 48 49 50
304
ASUS43 KFSD 210402
RWRSD

WEATHER ROUNDUP FOR SOUTH DAKOTA
NATIONAL WEATHER SERVICE SIOUX FALLS SD
1000 PM CST MON FEB 20 2017

NOTE: "FAIR" INDICATES FEW OR NO CLOUDS BELOW 12,000 FEET WITH NO
SIGNIFICANT WEATHER AND/OR OBSTRUCTIONS TO VISIBILITY.


SDZ001>005-009-010-012>017-210500-
NORTHWEST AND NORTH CENTRAL SOUTH DAKOTA

CITY           SKY/WX    TMP DP  RH WIND       PRES   REMARKS
BUFFALO          N/A     46  26  45 S9        29.62F
FAITH            N/A     42  29  59 S16       29.75S
MOBRIDGE       CLEAR     37  31  78 SE3       29.76R
$$

SDZ012>016-024>037-041>051-057-063-072>074-210500-
SOUTHWEST AND SOUTH CENTRAL SOUTH DAKOTA

CITY           SKY/WX    TMP DP  RH WIND       PRES   REMARKS
RAPID CTY ARPT PTCLDY    52  30  43 SW14      29.78S
PIERRE         PTCLDY    39  30  70 SE8       29.80S
CUSTER         CLOUDY    46  27  47 W17G31    29.88R
ELLSWORTH AFB  PTCLDY    53  29  41 S10       29.77R
PHILIP         CLEAR     44  27  51 SW6       29.80S
PINE RIDGE     CLEAR     43  31  62 SW8       29.87S
SPEARFISH      FAIR      55  27  33 SW24G32   29.74S
WINNER         FAIR      45  28  51 S10       29.85F
$$

SDZ004>011-016>023-039-040-210500-
NORTHEAST SOUTH DAKOTA

CITY           SKY/WX    TMP DP  RH WIND       PRES   REMARKS
ABERDEEN       CLEAR     30  28  92 SE6       29.83S WCI  24
WATERTOWN      CLEAR     38  35  89 W9        29.84R
BROOKINGS      CLEAR     37  36  96 CALM      29.86R
SISSETON         N/A     38  35  89 W8        29.81R
$$

SDZ017-020-022-023-036>040-048>070-210500-
SOUTHEAST SOUTH DAKOTA

CITY           SKY/WX    TMP DP  RH WIND       PRES   REMARKS
SIOUX FALLS    CLEAR     38  37  97 CALM      29.90R
HURON          CLEAR     35  35 100 S6        29.86R
CHAMBERLAIN    CLEAR     39  32  76 SE5       29.85F
MITCHELL       CLEAR     37  34  89 S3        29.88S
YANKTON        CLEAR     39  36  87 SW7       29.91R
$$

ABBREVIATIONS USED IN REMARKS
   TC - TEMPERATURE IN CELSIUS
  WCI - WIND CHILL INDEX
   HX - HEAT INDEX
  VSB - VISIBILITY





USA.gov is the U.S. government's official web portal to all federal, state and local government web resources and services.